Location: Bühlhof
(48.7849°N, 8.6361°E)
Time: 23:46:16
(UTC+00:00)

USA 267 - Pass Details

Date: 19 January 2026
Orbit: 1101 x 1107 km, 123.0° (Epoch: 10 January)

Event Time Altitude Azimuth Distance (km) Brightness Sun altitude
Exits shadow 17:09:54 13° 77° (ENE) 2,714 4.6 -10.9°
Maximum altitude 17:15:21 46° 9° (N) 1,450 3.7 -11.8°
Drops below altitude 10° 17:21:30 10° 299° (WNW) 2,964 6.2 -12.7°
Sets 17:24:05 0° 294° (WNW) 3,922 7.0 -13.1°
